Regional Weather Roundup
Issued by NWS

Home | Current Version | Previous Version | Graphics & Text | Print | Product List | Glossary On
Versions: 1 2 3 4 5 6 7 8 9 10 11 12 13 14 15 16 17 18 19 20 21 22 23 24 25 26 27 28 29 30 31 32 33 34 35 36 37 38 39 40 41 42 43 44 45 46 47 48 49 50
000
ASUS43 KDTX 280310
RWRMI
MICHIGAN HOURLY REGIONAL WEATHER ROUNDUP
NATIONAL WEATHER SERVICE DETROIT/PONTIAC MI
1100 PM EDT MON MAR 27 2017

NOTE: "FAIR" INDICATES FEW OR NO CLOUDS BELOW 12,000 FEET WITH NO
SIGNIFICANT WEATHER AND/OR OBSTRUCTION TO VISIBILITY.

MIZ047>049-052>055-059>063-066>070-074>076-081>083-280400-
SOUTHEAST LOWER MICHIGAN

CITY           SKY/WX    TMP DP  RH WIND       PRES   REMARKS
ADRIAN         CLOUDY    53  49  86 N7        29.92R
ALMA           CLOUDY    45  41  86 N7        29.95S
ANN ARBOR      CLOUDY    54  48  80 N7        29.91S
BAD AXE        CLOUDY    37  37  99 NE6       29.97R FOG     WCI  33
CARO           CLOUDY    46  44  93 CALM      29.93F
DETROIT CITY   CLOUDY    54  48  80 N6        29.92R
DETROIT        CLOUDY    55  48  77 N9        29.91F
FLINT          CLOUDY    49  43  80 N7        29.94R
GROSSE ILE     CLOUDY    47  44  91 CALM      29.90S
HILLSDALE      CLOUDY    50  46  87 N3        29.91S
HOWELL         CLOUDY    49  45  84 N5        29.92S

CITY           SKY/WX    TMP DP  RH WIND       PRES   REMARKS
JACKSON        CLOUDY    51  46  83 N5        29.92R
LAMBERTVILLE   CLOUDY    52  49  90 CALM      29.90S
LANSING        CLOUDY    47  41  80 N8        29.94R
LAPEER         CLOUDY    49  45  85 N6        29.92F
MASON          CLOUDY    49  46  88 N3        29.93R
MONROE         CLOUDY    53  51  95 CALM      29.89S
MT. CLEMENS    CLOUDY    52  51  93 N7        29.90S
PONTIAC        CLOUDY    50  45  83 N5        29.91S
PORT HOPE        N/A     36  35  96 CALM      29.96R
PORT HURON     CLOUDY    43  41  93 NE7       29.94S
TRI CITIES     CLOUDY    44  41  89 N14       29.96R
MIDLAND        CLOUDY    44  38  78 N5        29.95S
TROY           CLOUDY    53  46  78 N6        29.93F
SAGINAW HB     CLOUDY    45  41  87 N6        29.95R
$$
MIZ043>046-050>051-056>058-064>065-071>073-077>080-280400-
SOUTHWEST LOWER MICHIGAN

CITY           SKY/WX    TMP DP  RH WIND       PRES   REMARKS
BATTLE CREEK   CLOUDY    47  44  90 N5        29.93S
BENTON HARBOR  CLOUDY    40  34  79 N5        29.95R
BIG RAPIDS     CLOUDY    39  37  93 N3        29.94F
COLDWATER      CLOUDY    51  49  92 N6        29.92S
FREMONT        FAIR      38  36  91 CALM      29.95S
HOLLAND        CLOUDY    43  37  79 CALM      29.95S
GRAND RAPIDS   CLOUDY    46  42  86 N7        29.94S
IONIA          CLOUDY    45  40  82 N5        29.93F
KALAMAZOO      CLOUDY    47  41  80 N6        29.94R
LUDINGTON      CLOUDY    36  35  96 CALM      29.97S
MARSHALL       CLOUDY    49  47  91 CALM      29.93R
MOUNT PLEASANT CLOUDY    43  39  86 N7        29.95S
MUSKEGON       CLOUDY    39  35  86 N6        29.97R WCI  35
SOUTH HAVEN    CLOUDY    38  37  92 N5        29.94F WCI  35
$$
MIZ016>042-280400-
NORTHERN LOWER MICHIGAN

CITY           SKY/WX    TMP DP  RH WIND       PRES   REMARKS
ALPENA         CLOUDY    38  38 100 NW7       29.96F WCI  33
BEAVER ISLAND  CLOUDY    35  34  96 CALM      30.00R
BELLAIRE       CLOUDY    37  34  91 CALM      29.99S
CADILLAC       CLOUDY    35  34  96 CALM      29.95R
CHARLEVOIX     CLOUDY    35  35 100 N3        30.02S
FRANKFORT      CLOUDY    37  34  89 CALM      29.99S
GAYLORD        FOG       36  33  89 N3        29.95S VSB 1/4
GRAYLING       CLOUDY    37  34  87 NW3       29.96S
HARBOR SPRINGS CLOUDY    33  33 100 CALM      29.99S
HOUGHTON LAKE  CLOUDY    37  34  89 N3        29.96S
MANISTEE       CLOUDY    38  35  89 NE3       29.98S
OSCODA         CLOUDY    37  37  97 CALM      29.96R
PELLSTON       CLOUDY    36  32  85 W5        29.99R WCI  32
ROGERS CITY    CLOUDY    37  35  92 NW5       29.98S WCI  33
TRAVERSE CITY  CLOUDY    38  35  89 N3        29.97F
$$
MIZ007>008-015-280400-
EASTERN UPPER MICHIGAN

CITY           SKY/WX    TMP DP  RH WIND       PRES   REMARKS
KINROSS        CLOUDY    34  32  92 NW8       29.97R WCI  27
MACKINAC ISLAN CLOUDY    34  34 100 NW3       29.98S
NEWBERRY       CLOUDY    32  31  97 NW5       29.98S WCI  27
S. S. MARIE    CLOUDY    35  32  88 W6        29.97R WCI  30
MUNISING         N/A     33  33 100 N5        30.01R WCI  29
$$
MIZ004>006-011>014-085-280400-
CENTRAL UPPER MICHIGAN

CITY           SKY/WX    TMP DP  RH WIND       PRES   REMARKS
MANISTIQUE     CLOUDY    32  32 100 N6        30.00S WCI  26
ESCANABA       CLOUDY    32  30  92 CALM      30.02R
MENOMINEE        N/A    N/A N/A N/A MISG        N/A
SAWYER-GWINN   CLOUDY    32  32  99 N3        30.00S
$$
MIZ001>003-009>011-084-280400-
WESTERN UPPER MICHIGAN

CITY           SKY/WX    TMP DP  RH WIND       PRES   REMARKS
IRON MOUNTAIN  PTCLDY    33  31  92 CALM      29.99R
HOUGHTON       CLEAR     33  29  85 NW7       30.00S WCI  27
COPPER HARBOR    N/A     30  29  96 CALM      30.01R
IRONWOOD       CLEAR     29  27  92 SW3       30.03R
$$

ABBREVIATIONS USED IN REMARKS
   TC - TEMPERATURE IN CELSIUS
  WCI - WIND CHILL INDEX
   HX - HEAT INDEX
  VSB - VISIBILITY




USA.gov is the U.S. government's official web portal to all federal, state and local government web resources and services.